Change the Weather History Date:

Tuesday, December 13, 2011

  Actual Average Record
Temperature  
Mean Temperature 26 °F 23 °F  
Max Temperature 31 °F 36 °F 59 °F (2014)
Min Temperature 20 °F 11 °F -19 °F (1961)
Degree Days  
Heating Degree Days 39 42  
Month to date heating degree days 540 523  
Since 1 July heating degree days 1909 2158  
Cooling Degree Days 0 0  
Month to date cooling degree days 0 0  
Year to date cooling degree days 837 818  
Moisture  
Dew Point 23 °F    
Average Humidity 89    
Maximum Humidity 100    
Minimum Humidity 78    
Precipitation  
Precipitation 0.00 in 0.01 in 0.40 in (1951)
Month to date precipitation 0.03 0.19  
Year to date precipitation 15.83 17.11  
Sea Level Pressure  
Sea Level Pressure 30.09 in    
Wind  
Wind Speed 7 mph (ESE)    
Max Wind Speed 13 mph    
Max Gust Speed 16 mph    
Visibility 9 miles    
Events      
T = Trace of Precipitation, MM = Missing Value Source: NWS Daily Summary

Daily Weather History Graph

Daily Weather History Graph

Search for Another Location

Airport or City:

Trip Planner

Search our weather history database for the weather conditions in past years. The results will help you decide how hot, cold, wet, or windy it might be!

Date:

Astronomy

Dec. 13, 2011 Rise Set
Actual Time 7:12 AM MST 4:08 PM MST
Civil Twilight 6:39 AM MST 4:41 PM MST
Nautical Twilight 6:03 AM MST 5:17 PM MST
Astronomical Twilight 5:28 AM MST 5:52 PM MST
Moon 7:29 PM MST (12/13) 9:20 AM MST (12/13)
Length of Visible Light 10h 01m
Length of Day
8h 55m
Waning Gibbous, 90% of the Moon is Illuminated
Dec 13
Waning Gibbous
Dec 17
Last Quarter
Dec 24
New
Dec 31
First Quarter
Jan 9
Full

Hourly Weather History & Observations

Time (MST) Temp. Windchill Dew Point Humidity Pressure Visibility Wind Dir Wind Speed Gust Speed Precip Events Conditions
12:55 AM 21.0 °F 14.6 °F 19.9 °F 96% 30.29 in 5.0 mi SSE 4.6 mph - N/A   Overcast
1:55 AM 21.0 °F 11.4 °F 19.0 °F 92% 30.29 in 5.0 mi SE 8.1 mph - N/A   Overcast
2:55 AM 21.0 °F 12.4 °F 19.0 °F 92% 30.26 in 7.0 mi ESE 6.9 mph - N/A   Overcast
3:55 AM 21.0 °F 12.4 °F 19.0 °F 92% 30.23 in 7.0 mi East 6.9 mph - N/A   Overcast
4:55 AM 21.0 °F 13.4 °F 19.9 °F 96% 30.23 in 5.0 mi ESE 5.8 mph - N/A   Overcast
5:05 AM 21.2 °F 12.6 °F 19.4 °F 93% 30.13 in 5.0 mi ESE 6.9 mph - N/A   Overcast
5:55 AM 21.9 °F 12.5 °F 19.9 °F 92% 30.21 in 4.0 mi East 8.1 mph - N/A   Overcast
6:55 AM 21.9 °F 13.4 °F 19.9 °F 92% 30.21 in 6.0 mi ESE 6.9 mph - N/A   Overcast
7:02 AM 21.2 °F 12.6 °F 19.4 °F 93% 30.12 in 6.0 mi ESE 6.9 mph - N/A   Overcast
7:55 AM 23.0 °F 14.7 °F 21.0 °F 92% 30.21 in 8.0 mi SE 6.9 mph - N/A   Overcast
8:55 AM 23.0 °F 14.7 °F 21.0 °F 92% 30.19 in 10.0 mi SE 6.9 mph - N/A   Overcast
9:42 AM 24.8 °F 16.9 °F 21.2 °F 86% 30.10 in 10.0 mi ESE 6.9 mph - N/A   Overcast
9:55 AM 24.1 °F 13.7 °F 21.9 °F 91% 30.19 in 10.0 mi ESE 10.4 mph - N/A   Overcast
10:20 AM 24.8 °F 16.9 °F 21.2 °F 86% 30.09 in 10.0 mi ESE 6.9 mph - N/A   Overcast
10:37 AM 26.6 °F 18.2 °F 23.0 °F 86% 30.08 in 9.0 mi ESE 8.1 mph - N/A   Overcast
10:55 AM 27.0 °F 18.7 °F 23.0 °F 85% 30.15 in 10.0 mi ESE 8.1 mph - N/A   Overcast
11:38 AM 28.4 °F 19.1 °F 24.8 °F 86% 30.04 in 10.0 mi ESE 10.4 mph - N/A   Scattered Clouds
11:55 AM 28.9 °F 18.6 °F 24.1 °F 82% 30.09 in 10.0 mi ESE 12.7 mph - N/A   Scattered Clouds
12:25 PM 30.2 °F 21.3 °F 24.8 °F 80% 30.00 in 10.0 mi ESE 10.4 mph - N/A   Mostly Cloudy
12:55 PM 30.0 °F 20.5 °F 24.1 °F 79% 30.06 in 10.0 mi SE 11.5 mph - N/A   Overcast
1:55 PM 30.0 °F 22.4 °F 25.0 °F 82% 30.04 in 10.0 mi ESE 8.1 mph - N/A   Overcast
2:55 PM 30.9 °F 23.5 °F 26.1 °F 82% 30.02 in 10.0 mi ESE 8.1 mph - N/A   Overcast
3:55 PM 30.0 °F 22.4 °F 26.1 °F 85% 30.02 in 10.0 mi ESE 8.1 mph - N/A   Overcast
4:55 PM 30.0 °F 22.4 °F 26.1 °F 85% 30.01 in 10.0 mi East 8.1 mph - N/A   Overcast
5:55 PM 28.9 °F 21.9 °F 26.1 °F 89% 30.00 in 10.0 mi East 6.9 mph - N/A   Overcast
6:55 PM 30.0 °F 25.2 °F 27.0 °F 88% 29.99 in 10.0 mi East 4.6 mph - N/A   Overcast
7:55 PM 30.0 °F 26.5 °F 28.0 °F 92% 29.97 in 10.0 mi East 3.5 mph - N/A   Overcast
8:55 PM 30.0 °F 25.2 °F 28.0 °F 92% 29.94 in 10.0 mi East 4.6 mph - N/A   Overcast
9:55 PM 30.9 °F - 27.0 °F 85% 29.94 in 10.0 mi Calm Calm - N/A   Overcast
10:55 PM 30.0 °F 26.5 °F 26.1 °F 85% 29.92 in 10.0 mi SE 3.5 mph - N/A   Overcast
11:55 PM 27.0 °F 21.6 °F 24.1 °F 89% 29.89 in 9.0 mi ESE 4.6 mph - N/A   Scattered Clouds